DW2227 Weather Reports


time (UTC)temp
C
wind
direction
speed
KPH
gust
KPH
rain 1hr
cm
rain 24hr
cm
rain mn
cm
humidity
%
barometer
mb
20260906065333 23 150 0.0 3.2 0.00 0.00 0.00 88 1017.1
20260906064828 23 170 0.0 6.4 0.00 0.00 0.00 88 1017.2
20260906064343 23 171 3.2 6.4 0.00 0.00 0.00 87 1017.3
20260906063817 23 149 0.0 3.2 0.00 0.00 0.00 88 1017.2
20260906063357 23 126 0.0 3.2 0.00 0.00 0.00 87 1017.2
20260906062831 23 151 0.0 1.6 0.00 0.00 0.00 87 1017.3
20260906062322 23 120 0.0 1.6 0.00 0.00 0.00 87 1017.2
20260906061817 23 146 0.0 3.2 0.00 0.00 0.00 87 1017.2
20260906061331 23 145 0.0 4.8 0.00 0.00 0.00 87 1017.3
20260906060826 23 135 0.0 4.8 0.00 0.00 0.00 87 1017.3
20260906060320 23 151 0.0 1.6 0.00 0.00 0.00 87 1017.2
20260906055818 23 151 0.0 1.6 0.00 0.00 0.00 87 1017.1
20260906055332 23 151 0.0 4.8 0.00 0.00 0.00 87 1017.0
20260906054847 23 151 0.0 4.8 0.00 0.00 0.00 87 1017.1
20260906054322 23 149 0.0 3.2 0.00 0.00 0.00 87 1017.1
20260906053839 23 149 0.0 3.2 0.00 0.00 0.00 87 1017.2
20260906053333 23 196 0.0 1.6 0.00 0.00 0.00 87 1017.1
20260906052826 23 196 0.0 1.6 0.00 0.00 0.00 87 1017.2
20260906052321 23 196 0.0 1.6 0.00 0.00 0.00 87 1017.1
20260906051832 23 196 0.0 1.6 0.00 0.00 0.00 87 1017.0
20260906051329 23 196 0.0 3.2 0.00 0.00 0.00 87 1017.0
20260906050824 23 196 0.0 4.8 0.00 0.00 0.00 87 1017.0
20260906050320 23 150 0.0 3.2 0.00 0.00 0.00 87 1017.0
20260906045829 23 185 0.0 3.2 0.00 0.00 0.00 87 1017.0
20260906045323 23 175 0.0 4.8 0.00 0.00 0.00 87 1016.9
20260906044817 23 171 1.6 4.8 0.00 0.00 0.00 87 1016.9
20260906044331 23 176 0.0 3.2 0.00 0.00 0.00 88 1016.8
20260906043826 23 160 0.0 3.2 0.00 0.00 0.00 88 1016.8
20260906043319 23 138 0.0 1.6 0.00 0.00 0.00 88 1016.6
20260906042854 23 138 0.0 1.6 0.00 0.00 0.00 88 1016.6
20260906042330 23 138 0.0 1.6 0.00 0.00 0.00 88 1016.4
20260906041842 23 138 0.0 0.0 0.00 0.00 0.00 88 1016.3
20260906041331 23 138 0.0 0.0 0.00 0.00 0.00 88 1016.1
20260906040827 23 138 0.0 0.0 0.00 0.00 0.00 88 1016.2
20260906040320 23 138 0.0 0.0 0.00 0.00 0.00 88 1016.1
20260906035836 23 138 0.0 0.0 0.00 0.00 0.00 88 1016.1
20260906035332 23 138 0.0 0.0 0.00 0.00 0.00 88 1016.0
20260906034826 23 138 0.0 0.0 0.00 0.00 0.00 87 1015.9
20260906034322 23 138 0.0 0.0 0.00 0.00 0.00 87 1016.0
20260906033903 23 138 0.0 0.0 0.00 0.00 0.00 87 1016.0
20260906033331 23 138 0.0 0.0 0.00 0.00 0.00 87 1016.0
20260906032823 23 138 0.0 0.0 0.00 0.00 0.00 88 1015.8
20260906032320 23 138 0.0 0.0 0.00 0.00 0.00 87 1015.8
20260906031835 23 138 0.0 0.0 0.00 0.00 0.00 87 1015.8
20260906031328 23 138 0.0 0.0 0.00 0.00 0.00 87 1015.8
20260906030841 23 138 0.0 0.0 0.00 0.00 0.00 87 1015.7
20260906030316 23 138 0.0 0.0 0.00 0.00 0.00 87 1015.5
20260906025832 23 138 0.0 0.0 0.00 0.00 0.00 87 1015.7
20260906025327 23 138 0.0 0.0 0.00 0.00 0.00 86 1015.8
20260906024823 23 138 0.0 0.0 0.00 0.00 0.00 86 1015.6
20260906024319 23 138 0.0 0.0 0.00 0.00 0.00 86 1015.5
20260906023850 23 138 0.0 0.0 0.00 0.00 0.00 86 1015.5
20260906023323 24 138 0.0 0.0 0.00 0.00 0.00 86 1015.5
20260906022818 24 138 0.0 0.0 0.00 0.00 0.00 85 1015.5
20260906022333 24 138 0.0 0.0 0.00 0.00 0.00 85 1015.5
20260906021826 24 138 0.0 0.0 0.00 0.00 0.00 85 1015.5
20260906021322 24 138 0.0 1.6 0.00 0.00 0.00 85 1015.4
20260906020819 24 138 0.0 1.6 0.00 0.00 0.00 85 1015.3
20260906020333 25 138 0.0 0.0 0.00 0.00 0.00 84 1015.3
20260906015828 25 138 0.0 0.0 0.00 0.00 0.00 84 1015.2
20260906015323 25 138 0.0 0.0 0.00 0.00 0.00 83 1015.1
20260906014817 25 138 0.0 0.0 0.00 0.00 0.00 83 1015.0
20260906014332 25 138 0.0 1.6 0.00 0.00 0.00 83 1015.0
20260906013827 25 138 0.0 1.6 0.00 0.00 0.00 83 1014.8
20260906013322 25 138 0.0 1.6 0.00 0.00 0.00 82 1014.8
20260906012818 25 138 0.0 1.6 0.00 0.00 0.00 82 1014.8
20260906012333 25 128 0.0 3.2 0.00 0.00 0.00 81 1014.8
20260906011828 25 121 1.6 4.8 0.00 0.00 0.00 81 1014.9
20260906011324 26 159 0.0 6.4 0.00 0.00 0.00 81 1014.8
20260906010819 26 157 0.0 3.2 0.00 0.00 0.00 81 1014.8
20260906010335 26 190 0.0 4.8 0.00 0.00 0.00 80 1014.9
20260906005830 26 190 0.0 8.0 0.00 0.00 0.00 80 1014.8
20260906005326 26 181 0.0 14.5 0.00 0.00 0.00 80 1014.8
20260906004843 26 189 1.6 14.5 0.00 0.00 0.00 79 1014.8
20260906004332 26 154 1.6 4.8 0.00 0.00 0.00 80 1014.8
20260906003827 26 246 0.0 6.4 0.00 0.00 0.00 80 1014.8
20260906003322 27 200 0.0 4.8 0.00 0.00 0.00 81 1014.8
20260906002817 27 200 0.0 4.8 0.00 0.00 0.00 80 1014.7
20260906002331 27 240 0.0 4.8 0.00 0.00 0.00 80 1014.6
20260906001823 27 202 0.0 4.8 0.00 0.00 0.00 80 1014.7
20260906001318 27 187 0.0 3.2 0.00 0.00 0.00 80 1014.6
20260906000832 27 103 0.0 3.2 0.00 0.00 0.00 79 1014.6
20260906000348 28 190 0.0 3.2 0.00 0.00 0.00 78 1014.6
20260905235820 28 197 1.6 4.8 0.00 0.00 0.00 77 1014.5
20260905235335 28 220 1.6 4.8 0.00 0.00 0.00 77 1014.4
20260905234827 28 148 1.6 6.4 0.00 0.00 0.00 77 1014.4
20260905234322 28 306 0.0 6.4 0.00 0.00 0.00 79 1014.4
20260905233855 29 217 0.0 4.8 0.00 0.00 0.00 78 1014.3
20260905233328 29 215 0.0 4.8 0.00 0.00 0.00 77 1014.3
20260905232824 29 215 0.0 4.8 0.00 0.00 0.00 78 1014.3
20260905232339 29 272 0.0 4.8 0.00 0.00 0.00 77 1014.2
20260905231832 30 221 0.0 9.7 0.00 0.00 0.00 77 1014.1
20260905231327 30 47 1.6 9.7 0.00 0.00 0.00 75 1014.1
20260905230841 30 227 0.0 4.8 0.00 0.00 0.00 76 1014.2
20260905230335 30 355 1.6 4.8 0.00 0.00 0.00 75 1014.0
20260905225831 30 286 0.0 3.2 0.00 0.00 0.00 75 1014.1
20260905225346 30 11 0.0 3.2 0.00 0.00 0.00 75 1014.0
20260905224818 30 215 1.6 3.2 0.00 0.00 0.00 75 1014.0
20260905224333 30 5 0.0 3.2 0.00 0.00 0.00 74 1014.0
20260905223827 31 5 0.0 4.8 0.00 0.00 0.00 75 1014.0
20260905223323 31 251 0.0 4.8 0.00 0.00 0.00 76 1013.9
20260905222817 31 344 1.6 9.7 0.00 0.00 0.00 75 1013.9
20260905222333 31 190 0.0 9.7 0.00 0.00 0.00 74 1013.7
20260905221827 31 247 0.0 6.4 0.00 0.00 0.00 75 1013.7
20260905221321 31 106 1.6 6.4 0.00 0.00 0.00 74 1013.7
20260905220817 31 336 0.0 3.2 0.00 0.00 0.00 74 1013.7
20260905220333 31 189 0.0 4.8 0.00 0.00 0.00 73 1013.8
20260905215828 31 113 0.0 4.8 0.00 0.00 0.00 73 1013.7
20260905215322 32 56 0.0 4.8 0.00 0.00 0.00 73 1013.7
20260905214817 32 232 0.0 3.2 0.00 0.00 0.00 74 1013.5
20260905214331 32 161 0.0 8.0 0.00 0.00 0.00 73 1013.5
20260905213824 32 276 0.0 8.0 0.00 0.00 0.00 72 1013.4
20260905213319 32 117 0.0 3.2 0.00 0.00 0.00 74 1013.4
20260905212836 32 184 0.0 3.2 0.00 0.00 0.00 73 1013.3
20260905212332 32 341 0.0 3.2 0.00 0.00 0.00 72 1013.4
20260905211827 32 219 0.0 3.2 0.00 0.00 0.00 70 1013.3
20260905211323 32 219 0.0 4.8 0.00 0.00 0.00 70 1013.4
20260905210840 32 325 0.0 6.4 0.00 0.00 0.00 68 1013.4
20260905210331 32 150 1.6 6.4 0.00 0.00 0.00 67 1013.3
20260905205824 32 278 0.0 3.2 0.00 0.00 0.00 70 1013.3
20260905205319 32 247 0.0 3.2 0.00 0.00 0.00 70 1013.4
20260905204833 33 264 0.0 3.2 0.00 0.00 0.00 68 1013.5
20260905204326 33 222 0.0 4.8 0.00 0.00 0.00 70 1013.5
20260905203822 33 161 0.0 4.8 0.00 0.00 0.00 71 1013.8
20260905203317 33 100 0.0 3.2 0.00 0.00 0.00 70 1013.8
20260905202853 33 231 0.0 1.6 0.00 0.00 0.00 68 1013.9
20260905202347 33 231 0.0 3.2 0.00 0.00 0.00 68 1013.8
20260905201821 33 360 0.0 3.2 0.00 0.00 0.00 67 1013.8
20260905201334 33 185 0.0 3.2 0.00 0.00 0.00 68 1013.7
20260905200849 33 171 0.0 3.2 0.00 0.00 0.00 70 1013.8
20260905200322 33 171 0.0 3.2 0.00 0.00 0.00 66 1013.8
20260905195817 33 209 0.0 6.4 0.00 0.00 0.00 68 1013.8
20260905195332 33 201 0.0 6.4 0.00 0.00 0.00 68 1013.8
20260905194849 33 201 0.0 1.6 0.00 0.00 0.00 68 1013.8
20260905194345 33 184 0.0 1.6 0.00 0.00 0.00 67 1013.9
20260905193819 33 184 0.0 3.2 0.00 0.00 0.00 68 1013.8
20260905193335 33 184 1.6 3.2 0.00 0.00 0.00 67 1013.9
20260905192829 33 164 0.0 1.6 0.00 0.00 0.00 67 1013.9
20260905192346 33 164 0.0 1.6 0.00 0.00 0.00 70 1014.0
20260905191817 33 164 0.0 0.0 0.00 0.00 0.00 69 1014.1
20260905191351 33 164 0.0 3.2 0.00 0.00 0.00 68 1014.2
20260905190826 33 164 0.0 4.8 0.00 0.00 0.00 68 1014.3
20260905190321 33 51 3.2 4.8 0.00 0.00 0.00 66 1014.3
20260905185835 33 217 0.0 1.6 0.00 0.00 0.00 67 1014.3
20260905185351 33 217 0.0 3.2 0.00 0.00 0.00 69 1014.3
20260905184825 33 217 0.0 3.2 0.00 0.00 0.00 70 1014.3
20260905184320 33 235 0.0 1.6 0.00 0.00 0.00 70 1014.4
20260905183834 33 209 0.0 1.6 0.00 0.00 0.00 68 1014.5
20260905183329 33 209 0.0 1.6 0.00 0.00 0.00 67 1014.4
20260905182823 33 209 0.0 3.2 0.00 0.00 0.00 67 1014.4
20260905182318 33 138 0.0 3.2 0.00 0.00 0.00 67 1014.4
20260905181833 33 261 0.0 1.6 0.00 0.00 0.00 69 1014.5
20260905181348 33 308 0.0 1.6 0.00 0.00 0.00 67 1014.5
20260905180821 33 308 0.0 1.6 0.00 0.00 0.00 68 1014.5
20260905180335 33 308 0.0 1.6 0.00 0.00 0.00 69 1014.6
20260905175827 33 282 0.0 1.6 0.00 0.00 0.00 69 1014.6
20260905175342 33 282 0.0 1.6 0.00 0.00 0.00 68 1014.6
20260905174835 33 282 0.0 1.6 0.00 0.00 0.00 70 1014.6
20260905174329 32 207 0.0 1.6 0.00 0.00 0.00 69 1014.7
20260905173824 32 207 0.0 1.6 0.00 0.00 0.00 72 1014.8
20260905173319 32 116 0.0 1.6 0.00 0.00 0.00 70 1014.8
20260905172836 33 116 0.0 1.6 0.00 0.00 0.00 69 1014.7
20260905172347 33 116 0.0 3.2 0.00 0.00 0.00 69 1014.7
20260905171822 33 220 0.0 3.2 0.00 0.00 0.00 69 1014.8
20260905171318 33 98 0.0 3.2 0.00 0.00 0.00 66 1015.0
20260905170852 33 109 1.6 3.2 0.00 0.00 0.00 66 1015.0
20260905170346 33 172 0.0 3.2 0.00 0.00 0.00 68 1015.0
20260905165834 33 253 0.0 4.8 0.00 0.00 0.00 70 1015.0
20260905165328 33 253 0.0 4.8 0.00 0.00 0.00 68 1015.0
20260905164823 33 100 0.0 3.2 0.00 0.00 0.00 70 1015.0
20260905164317 32 153 0.0 3.2 0.00 0.00 0.00 70 1015.0
20260905163831 32 189 0.0 4.8 0.00 0.00 0.00 72 1015.0
20260905163325 32 162 0.0 3.2 0.00 0.00 0.00 72 1014.9
20260905162818 32 162 0.0 3.2 0.00 0.00 0.00 71 1014.9
20260905162331 32 162 0.0 8.0 0.00 0.00 0.00 73 1014.9
20260905161825 32 162 3.2 8.0 0.00 0.00 0.00 71 1014.8
20260905161318 32 96 0.0 4.8 0.00 0.00 0.00 72 1014.8
20260905160831 32 138 1.6 4.8 0.00 0.00 0.00 72 1014.8
20260905160326 31 123 0.0 1.6 0.00 0.00 0.00 75 1014.8
20260905155841 31 123 0.0 1.6 0.00 0.00 0.00 75 1014.8
20260905155336 31 149 0.0 3.2 0.00 0.00 0.00 77 1014.8
20260905154831 31 149 0.0 4.8 0.00 0.00 0.00 75 1014.8
20260905154345 31 36 0.0 4.8 0.00 0.00 0.00 78 1014.8
20260905153818 31 182 0.0 3.2 0.00 0.00 0.00 76 1014.8
20260905153333 30 182 0.0 4.8 0.00 0.00 0.00 78 1014.7
20260905152828 30 130 1.6 4.8 0.00 0.00 0.00 77 1014.8
20260905152322 30 146 1.6 4.8 0.00 0.00 0.00 78 1014.9
20260905151818 30 217 0.0 1.6 0.00 0.00 0.00 79 1014.7
20260905151333 30 217 0.0 0.0 0.00 0.00 0.00 82 1014.7
20260905150830 29 217 0.0 1.6 0.00 0.00 0.00 82 1014.7
20260905150324 29 251 0.0 4.8 0.00 0.00 0.00 82 1014.6
20260905145820 28 254 0.0 1.6 0.00 0.00 0.00 82 1014.6
20260905145331 28 254 0.0 1.6 0.00 0.00 0.00 83 1014.6
20260905144826 28 211 0.0 1.6 0.00 0.00 0.00 84 1014.6
20260905144320 28 305 0.0 1.6 0.00 0.00 0.00 84 1014.6
20260905143834 28 305 0.0 1.6 0.00 0.00 0.00 85 1014.5
20260905143328 27 305 0.0 1.6 0.00 0.00 0.00 87 1014.5
20260905142842 27 305 0.0 1.6 0.00 0.00 0.00 86 1014.5
20260905142335 27 305 0.0 1.6 0.00 0.00 0.00 87 1014.5
20260905141849 27 305 0.0 1.6 0.00 0.00 0.00 88 1014.4
20260905141324 27 215 0.0 0.0 0.00 0.00 0.00 89 1014.3
20260905140819 26 215 0.0 1.6 0.00 0.00 0.00 89 1014.4
20260905140333 26 215 0.0 1.6 0.00 0.00 0.00 90 1014.3
20260905135826 26 268 0.0 1.6 0.00 0.00 0.00 90 1014.2
20260905135321 26 268 0.0 0.0 0.00 0.00 0.00 90 1014.1
20260905134834 26 268 0.0 0.0 0.00 0.00 0.00 91 1014.1
20260905134346 25 268 0.0 0.0 0.00 0.00 0.00 92 1014.0
20260905133820 25 268 0.0 0.0 0.00 0.00 0.00 92 1014.0
20260905133335 25 268 0.0 0.0 0.00 0.00 0.00 92 1014.0
20260905132851 25 268 0.0 0.0 0.00 0.00 0.00 92 1013.9
20260905132324 25 268 0.0 0.0 0.00 0.00 0.00 92 1014.0
20260905131821 24 268 0.0 0.0 0.00 0.00 0.00 92 1014.0
20260905131335 24 268 0.0 0.0 0.00 0.00 0.00 92 1014.0
20260905130831 23 268 0.0 0.0 0.00 0.00 0.00 91 1014.0
20260905130346 23 268 0.0 0.0 0.00 0.00 0.00 91 1014.0
20260905125820 23 268 0.0 0.0 0.00 0.00 0.00 91 1014.1
20260905125351 23 268 0.0 0.0 0.00 0.00 0.00 91 1014.0
20260905124820 23 268 0.0 0.0 0.00 0.00 0.00 91 1013.8
20260905124333 23 268 0.0 0.0 0.00 0.00 0.00 91 1013.8
20260905123827 23 268 0.0 0.0 0.00 0.00 0.00 91 1013.8
20260905123322 23 268 0.0 0.0 0.00 0.00 0.00 91 1013.8
20260905122819 23 268 0.0 0.0 0.00 0.00 0.00 91 1013.7
20260905122334 23 268 0.0 0.0 0.00 0.00 0.00 91 1013.9
20260905121829 23 268 0.0 0.0 0.00 0.00 0.00 90 1013.9
20260905121324 23 268 0.0 0.0 0.00 0.00 0.00 90 1013.7
20260905120821 23 268 0.0 0.0 0.00 0.00 0.00 90 1013.3
20260905120335 23 268 0.0 0.0 0.00 0.00 0.00 90 1013.3
20260905115831 23 268 0.0 0.0 0.00 0.00 0.00 90 1013.1
20260905115325 23 268 0.0 0.0 0.00 0.00 0.00 90 1013.0
20260905114820 23 268 0.0 0.0 0.00 0.00 0.00 90 1013.1
20260905114354 23 268 0.0 0.0 0.00 0.00 0.00 90 1013.0
20260905113827 23 268 0.0 0.0 0.00 0.00 0.00 90 1012.8
20260905113323 23 268 0.0 0.0 0.00 0.00 0.00 90 1012.8
20260905112818 23 268 0.0 0.0 0.00 0.00 0.00 91 1012.8
20260905112331 23 268 0.0 0.0 0.00 0.00 0.00 90 1012.8
20260905111828 23 268 0.0 0.0 0.00 0.00 0.00 90 1012.7
20260905111323 23 268 0.0 0.0 0.00 0.00 0.00 90 1012.8
20260905110820 23 268 0.0 0.0 0.00 0.00 0.00 90 1012.8
20260905110354 23 268 0.0 0.0 0.00 0.00 0.00 90 1012.9
20260905105830 23 268 0.0 0.0 0.00 0.00 0.00 90 1012.7
20260905105343 23 268 0.0 0.0 0.00 0.00 0.00 90 1012.6
20260905104836 23 268 0.0 0.0 0.00 0.00 0.00 90 1012.6
20260905104332 23 268 0.0 0.0 0.00 0.00 0.00 90 1012.7
20260905103826 23 268 0.0 0.0 0.00 0.00 0.00 90 1012.7
20260905103333 23 268 0.0 0.0 0.00 0.00 0.00 90 1012.7
20260905102845 23 268 0.0 0.0 0.00 0.00 0.00 90 1012.7
20260905102320 23 268 0.0 0.0 0.00 0.00 0.00 90 1012.6
20260905101834 23 268 0.0 0.0 0.00 0.00 0.00 90 1012.7
20260905101328 23 268 0.0 0.0 0.00 0.00 0.00 90 1012.8
20260905100843 23 268 0.0 0.0 0.00 0.00 0.00 90 1012.8
20260905100318 23 268 0.0 0.0 0.00 0.00 0.00 90 1012.7
20260905095831 23 268 0.0 0.0 0.00 0.00 0.00 90 1012.7
20260905095327 23 268 0.0 0.0 0.00 0.00 0.00 90 1012.5
20260905094841 23 268 0.0 0.0 0.00 0.00 0.00 90 1012.6
20260905094332 23 268 0.0 0.0 0.00 0.00 0.00 90 1012.6
20260905093826 23 268 0.0 0.0 0.00 0.00 0.00 90 1012.6
20260905093341 23 268 0.0 0.0 0.00 0.00 0.00 90 1012.6
20260905092834 23 268 0.0 0.0 0.00 0.00 0.00 90 1012.7
20260905092330 23 268 0.0 0.0 0.00 0.00 0.00 90 1012.8
20260905091825 23 268 0.0 0.0 0.00 0.00 0.00 90 1012.8
20260905091321 23 268 0.0 0.0 0.00 0.00 0.00 90 1012.9
20260905090816 23 268 0.0 0.0 0.00 0.00 0.00 90 1012.9
20260905090332 23 268 0.0 0.0 0.00 0.00 0.00 90 1012.9
20260905085828 24 268 0.0 0.0 0.00 0.00 0.00 90 1012.9
20260905085324 24 268 0.0 0.0 0.00 0.00 0.00 90 1012.9
20260905084818 24 268 0.0 0.0 0.00 0.00 0.00 90 1013.0
20260905084332 24 268 0.0 0.0 0.00 0.00 0.00 90 1013.0
20260905083827 24 268 0.0 0.0 0.00 0.00 0.00 90 1013.1
20260905083322 24 268 0.0 0.0 0.00 0.00 0.00 90 1013.1
20260905082838 24 268 0.0 0.0 0.00 0.00 0.00 90 1013.1
20260905082332 24 268 0.0 0.0 0.00 0.00 0.00 90 1013.1
20260905081844 24 268 0.0 0.0 0.00 0.00 0.00 90 1013.0
20260905081336 24 268 0.0 0.0 0.00 0.00 0.00 90 1013.0
20260905080831 24 268 0.0 0.0 0.00 0.00 0.00 90 1013.0
20260905080326 24 268 0.0 0.0 0.00 0.00 0.00 90 1013.0
20260905075842 24 268 0.0 0.0 0.00 0.00 0.00 90 1013.0
20260905075331 24 268 0.0 0.0 0.00 0.00 0.00 90 1013.0
20260905074827 24 268 0.0 0.0 0.00 0.00 0.00 90 1013.1
20260905074322 24 268 0.0 0.0 0.00 0.00 0.00 90 1013.1
20260905073818 24 268 0.0 0.0 0.00 0.00 0.00 90 1013.1
20260905073333 24 268 0.0 0.0 0.00 0.00 0.00 90 1013.1
20260905072826 24 268 0.0 0.0 0.00 0.00 0.00 90 1013.2
20260905072321 24 268 0.0 0.0 0.00 0.00 0.00 90 1013.2
20260905071818 24 268 0.0 0.0 0.00 0.00 0.00 90 1013.2
20260905071334 24 268 0.0 0.0 0.00 0.00 0.00 90 1013.2
20260905070826 24 268 0.0 0.0 0.00 0.00 0.00 90 1013.2
20260905070321 25 268 0.0 0.0 0.00 0.00 0.00 90 1013.2
20260905065836 25 268 0.0 0.0 0.00 0.00 0.00 90 1013.2